Date,TemperatureHighF,TemperatureAvgF,TemperatureLowF,DewpointHighF,DewpointAvgF,DewpointLowF,HumidityHigh,HumidityAvg,HumidityLow,PressureMaxIn,PressureMinIn,WindSpeedMaxMPH,WindSpeedAvgMPH,GustSpeedMaxMPH,PrecipitationSumIn
2013-2-1,39,33,28,-100,-100,-100,0,0,100,0.00,40.00,4,1,5,0.00
2013-2-2,45,40,36,-100,-100,-100,0,0,100,0.00,40.00,4,-20,5,0.00
2013-2-3,35,30,27,-100,-100,-100,0,0,100,0.00,40.00,4,2,6,0.00
2013-2-4,36,32,28,-100,-100,-100,0,0,100,0.00,40.00,3,1,6,0.00
2013-2-5,33,30,28,-100,-100,-100,0,0,100,0.00,40.00,4,2,8,0.00
2013-2-6,31,28,27,-100,-100,-100,0,0,100,0.00,40.00,1,1,4,0.01
2013-2-7,29,26,21,-100,-100,-100,0,0,100,0.00,40.00,4,-42,7,0.01
2013-2-8,29,23,19,-100,-100,-100,0,0,100,0.00,40.00,8,4,13,0.00
2013-2-9,30,26,22,-100,-100,-100,0,0,100,0.00,40.00,9,5,15,0.00
2013-2-10,37,29,24,-100,-100,-100,0,0,100,0.00,40.00,5,-40,8,0.00
2013-2-11,31,27,24,-100,-100,-100,0,0,100,0.00,40.00,7,3,9,0.00
2013-2-12,33,30,27,-100,-100,-100,0,0,100,0.00,40.00,1,-41,4,0.01
2013-2-13,33,31,28,-100,-100,-100,0,0,100,0.00,40.00,0,0,3,0.01
2013-2-14,35,30,27,-100,-100,-100,0,0,100,0.00,40.00,6,-42,10,0.00
2013-2-15,47,40,34,-100,-100,-100,0,0,100,0.00,40.00,7,-39,48,0.00
2013-2-16,38,31,25,-100,-100,-100,0,0,100,0.00,40.00,4,1,8,0.01
2013-2-17,28,25,22,-100,-100,-100,0,0,100,0.00,40.00,0,0,1,0.00
2013-2-18,26,24,22,-100,-100,-100,0,0,100,0.00,40.00,0,0,0,0.00
2013-2-19,31,25,22,-100,-100,-100,0,0,100,0.00,40.00,5,1,9,0.00
2013-2-20,25,24,21,-100,-100,-100,0,0,100,0.00,40.00,3,-48,5,0.00
2013-2-21,28,26,24,-100,-100,-100,0,0,100,0.00,40.00,1,0,2,0.01
2013-2-22,29,26,21,-100,-100,-100,0,0,100,0.00,40.00,0,-166,0,0.02
2013-2-23,30,24,21,-100,-100,-100,0,0,100,0.00,40.00,0,-178,2,0.01
2013-2-24,31,24,22,-100,-100,-100,0,0,100,0.00,40.00,1,-322,1,0.01
2013-2-25,29,25,21,-100,-100,-100,0,0,100,0.00,40.00,5,-226,12,0.01
2013-2-26,30,24,21,-100,-100,-100,0,0,100,0.00,40.00,2,1,5,0.01
2013-2-27,33,29,26,-100,-100,-100,0,0,100,0.00,40.00,2,1,5,0.00
2013-2-28,36,32,29,-100,-100,-100,0,0,100,0.00,40.00,3,-42,9,0.04